Dewpoint
58 48 44 40 31 28 24 23 20 26 25 27 32 32 33 35 36 37 55 58 57 62 65 69 71 70 68 67 65 63 63 63 63 64 67 65 65 63 61 59 57 57 58 61 63 64 64 63 62
53 44 41 35 28 24 22 23 20 23 29 31 31 32 33 34 41 52 54 58 58 62 66 69 71 70 68 66 64 64 63 62 61 61 65 63 62 61 59 58 60 59 58 58 60 60 60 59 58
52 43 36 32 28 23 21 24 21 28 30 31 30 35 36 38 45 49 55 58 59 62 65 69 71 70 68 66 65 64 64 61 61 62 64 61 59 57 58 60 60 58 58 58 57 57 57 58 59
45 40 35 30 26 24 23 25 24 27 29 31 33 33 38 46 47 51 56 57 59 61 64 71 71 70 68 67 65 64 62 60 62 65 63 60 59 59 59 61 60 58 58 58 58 58 58 59 59
45 37 31 26 23 23 26 26 27 27 28 29 31 32 37 47 51 55 57 57 58 60 64 69 71 70 69 67 65 64 62 60 60 63 62 59 59 60 61 61 62 59 59 59 60 61 61 60 60
38 34 27 23 23 23 24 27 28 28 27 28 29 31 36 49 51 55 57 56 58 60 62 67 71 70 69 68 66 65 63 61 60 61 61 60 61 62 62 62 63 61 60 60 61 62 61 61 61
37 32 26 24 21 21 23 28 27 27 26 27 29 29 35 43 54 56 57 56 58 60 61 65 68 69 70 69 68 66 64 63 61 61 62 63 63 61 63 64 63 62 61 62 63 62 62 62 62
39 34 28 25 20 21 23 27 29 27 27 30 31 27 30 46 55 56 56 57 58 59 60 62 64 67 67 67 68 67 66 64 64 63 63 63 61 61 65 65 64 63 62 63 63 63 64 64 63
44 35 28 26 22 24 27 27 30 30 30 31 30 31 41 44 54 55 55 57 58 59 59 60 61 64 65 66 67 67 67 65 64 62 63 62 59 58 62 64 65 64 64 63 63 62 61 59 60
41 33 27 24 24 25 28 30 29 30 31 29 32 34 40 45 50 53 53 54 56 58 58 59 60 61 61 64 67 65 64 63 61 57 58 58 56 57 58 63 65 64 62 62 60 59 59 59 56
38 34 29 28 36 36 33 31 33 33 31 28 28 33 37 41 45 50 51 51 54 56 58 59 60 61 60 60 66 64 64 62 60 57 54 55 56 57 55 58 58 59 58 58 58 58 53 51 49
36 36 34 34 37 40 39 36 34 34 33 32 33 38 40 40 40 44 47 48 49 53 57 59 61 62 61 61 61 63 62 60 59 57 53 53 52 52 52 53 54 55 55 55 55 51 48 46 43
36 35 33 36 38 38 39 37 36 36 37 37 37 38 40 40 40 41 41 46 47 50 54 58 60 62 63 62 61 60 59 60 60 57 55 54 52 53 54 54 54 55 55 52 51 48 45 42 38
36 36 35 36 36 36 36 35 34 33 33 33 35 36 37 39 40 40 41 41 46 47 51 55 59 61 63 63 61 60 59 60 61 58 57 56 56 56 55 55 54 51 50 49 46 43 40 35 27
38 36 36 35 35 34 35 33 33 34 33 32 32 32 32 33 35 38 39 41 42 43 47 49 54 59 61 62 62 60 60 60 61 59 57 57 59 57 57 53 50 46 43 41 41 36 30 27 26
35 34 31 30 32 32 33 28 27 29 31 31 31 31 31 31 32 33 36 40 42 42 40 42 44 52 57 59 61 60 60 60 62 60 58 59 60 58 52 51 49 45 42 39 34 30 29 27 24
32 28 28 27 31 31 33 31 29 35 33 30 32 32 32 32 32 32 34 36 41 42 42 42 42 44 50 56 58 60 59 60 62 61 60 60 60 54 51 50 46 42 38 33 27 29 25 23 23
26 27 27 26 27 30 29 28 29 29 31 32 32 33 33 32 34 36 35 34 35 39 42 42 42 44 44 49 54 58 59 61 62 62 61 61 56 51 48 43 39 37 33 29 27 25 24 22 21
26 27 25 26 28 28 27 26 26 27 27 28 29 30 30 31 33 34 36 38 38 38 40 41 41 43 45 49 53 57 58 63 63 62 61 56 51 45 41 37 35 32 29 27 24 23 24 23 22
29 28 26 26 27 27 25 24 24 24 24 24 24 25 27 27 28 29 32 35 37 38 40 41 41 43 46 51 55 57 60 59 58 57 55 51 46 40 35 32 31 28 26 24 23 24 23 22 22
29 27 26 25 26 25 23 22 20 21 22 22 23 24 24 24 24 24 25 29 35 37 39 41 42 44 48 52 56 58 54 49 46 46 46 44 41 34 32 30 29 27 27 26 25 24 21 21 22
26 26 25 25 25 22 26 20 20 19 19 20 20 21 21 23 23 24 24 24 26 34 41 43 43 46 51 55 56 57 53 49 45 43 42 39 34 32 29 27 26 26 25 25 23 22 22 19 20
26 29 27 27 26 26 24 23 21 17 17 20 21 21 21 22 22 23 25 27 28 30 40 45 45 48 54 56 56 55 50 50 43 40 38 35 32 30 27 25 25 24 23 20 21 21 19 18 15
30 28 28 27 27 24 21 20 16 14 11 13 17 20 19 20 21 22 24 26 29 33 39 46 48 51 54 56 53 52 52 46 39 36 33 32 31 28 24 23 23 22 22 22 21 21 21 18 16
29 29 22 23 22 17 15 15 16 16 17 17 18 18 20 19 21 20 21 26 29 33 36 46 49 51 54 53 52 52 53 44 40 34 33 31 26 26 23 22 21 22 22 22 21 21 21 18 17
28 27 21 14 8 11 17 15 15 16 16 18 19 19 19 21 20 26 27 27 34 36 38 45 49 50 51 52 52 53 48 44 41 36 32 26 26 23 22 21 20 19 19 19 19 20 18 18 17
28 27 27 24 21 19 15 14 16 17 16 16 16 17 19 20 23 26 28 31 29 37 40 46 49 49 50 51 52 50 45 42 37 32 26 23 22 20 19 19 17 17 17 17 17 15 15 15 15
29 28 25 27 18 13 12 12 12 14 15 15 16 16 19 24 25 28 32 35 30 37 42 46 48 48 49 50 49 46 38 31 25 24 23 21 18 18 18 17 17 16 16 16 15 15 15 13 14
29 28 27 24 24 17 15 14 16 18 20 18 15 15 21 23 29 32 36 38 34 38 45 47 48 47 48 45 38 34 29 26 23 21 20 18 17 17 17 16 15 15 14 14 13 12 12 13 15
26 27 26 24 19 23 25 22 23 22 22 22 23 23 22 24 26 37 39 40 39 43 47 48 47 46 44 38 32 28 24 22 21 20 19 20 17 16 15 14 13 13 13 11 10 10 12 14 16
Wind_Speed
15 10 8 7 8 9 15 10 12 6 5 10 3 6 6 12 7 3 7 6 15 20 22 20 19 18 17 16 14 12 10 8 8 8 11 11 11 10 10 10 8 7 7 9 11 13 13 11 9
10 9 8 9 11 17 16 14 9 8 2 3 9 10 9 7 6 8 12 7 16 18 21 20 19 18 17 15 14 12 10 8 7 7 9 13 11 9 10 10 8 8 8 8 8 10 9 8 8
11 7 10 8 19 21 16 7 9 3 5 6 5 5 3 2 5 10 11 12 17 16 20 23 20 19 17 15 12 11 9 9 8 7 10 13 11 10 10 9 8 8 8 8 8 8 8 8 7
6 8 9 15 21 18 18 1 4 7 5 3 3 6 5 5 4 6 14 13 16 16 16 26 22 19 17 15 12 10 8 9 9 9 14 12 11 11 10 9 9 9 9 9 8 7 6 5 4
12 11 16 19 26 24 8 11 7 8 2 6 2 9 2 7 8 10 13 14 16 15 17 19 22 20 18 15 13 11 10 9 9 11 11 10 10 9 8 9 9 8 7 6 6 5 4 3 3
12 12 17 25 25 22 18 12 12 12 10 7 8 10 2 9 9 9 12 12 14 15 15 18 19 20 19 15 13 12 10 9 9 10 8 8 7 7 8 9 9 8 6 4 2 3 3 3 3
19 18 22 25 23 22 18 13 14 15 16 12 6 9 6 9 7 9 11 12 13 14 14 17 17 17 19 17 14 13 12 10 9 8 8 6 5 1 6 10 11 8 6 3 2 3 3 3 2
17 22 26 25 26 25 13 11 12 14 16 2 3 9 6 10 7 9 9 11 12 13 14 15 18 18 17 16 15 14 12 11 11 9 6 7 5 1 8 15 11 8 5 3 4 4 3 2 2
11 22 25 26 26 19 6 9 14 7 12 7 9 13 7 3 7 9 9 10 11 12 14 14 16 17 17 16 16 14 12 11 11 10 9 9 10 7 10 9 11 6 5 3 3 2 1 3 4
15 21 25 19 18 21 14 13 13 10 17 18 12 9 1 2 7 11 11 13 13 14 16 15 15 18 16 17 17 15 14 13 12 12 13 12 9 7 6 9 7 6 5 4 3 2 4 8 6
16 29 17 13 10 10 13 14 15 13 18 18 20 15 9 4 9 12 13 14 15 15 16 16 16 16 16 13 16 11 11 12 13 13 14 13 9 7 7 10 8 9 8 10 8 7 1 4 4
18 18 23 12 7 11 14 16 19 21 21 17 12 9 2 9 11 12 14 14 12 16 16 16 16 16 16 15 14 16 16 14 11 12 12 10 9 10 10 8 6 5 8 3 3 2 1 0 2
15 18 13 16 16 16 16 20 22 22 19 19 21 16 17 18 16 13 12 15 15 15 16 17 17 17 16 16 15 15 15 13 11 12 13 12 11 11 8 6 7 4 3 3 3 1 1 2 4
2 12 17 16 18 18 20 24 22 19 24 27 26 26 25 24 22 19 16 15 16 16 17 18 19 19 18 18 16 15 15 14 12 14 14 13 12 10 9 7 6 5 3 3 2 2 2 2 4
9 15 18 23 22 18 12 24 29 31 28 30 27 26 28 30 27 27 23 19 18 18 17 18 19 20 20 19 18 16 15 15 13 15 16 16 11 10 9 9 8 8 5 5 3 2 2 3 5
8 12 17 4 7 11 12 21 8 9 22 23 27 27 29 28 28 29 27 24 21 18 17 17 14 17 20 18 17 16 16 16 15 14 15 17 15 13 9 9 8 8 7 6 4 2 1 3 5
14 12 16 12 8 8 15 14 9 2 10 17 17 19 21 24 28 28 28 29 26 22 19 17 17 18 20 20 18 18 18 15 15 14 15 17 15 14 11 9 8 9 7 7 5 4 2 3 4
15 17 16 13 5 9 18 26 25 24 24 24 22 21 22 23 22 23 26 28 29 24 22 22 20 19 19 17 17 17 17 14 15 14 14 17 14 15 13 11 9 8 8 7 6 5 4 3 5
10 10 13 12 9 18 26 30 26 24 26 28 27 27 28 29 25 25 24 24 27 29 28 27 23 20 19 17 17 18 18 12 11 11 15 16 15 15 14 11 11 7 7 7 6 5 3 5 8
15 16 18 17 15 15 21 38 31 33 36 31 31 32 33 32 31 30 29 28 28 29 29 27 25 22 20 17 16 14 12 10 10 7 12 13 15 14 14 13 11 9 9 8 6 3 4 4 7
16 17 16 17 18 22 27 35 25 18 19 26 29 31 33 33 31 31 32 31 28 30 28 25 25 21 20 19 16 13 17 12 9 11 11 12 15 13 12 12 12 9 8 8 7 5 4 4 3
13 10 12 13 11 8 5 20 20 20 21 19 18 19 20 22 25 28 30 28 29 29 26 24 23 21 21 21 21 24 18 18 11 16 11 12 13 14 13 13 13 10 8 9 7 6 5 1 2
7 3 6 8 13 18 19 13 20 10 14 16 18 17 17 17 17 19 22 24 25 23 24 22 20 21 20 23 21 22 19 16 18 17 18 14 14 14 14 13 11 11 8 9 8 7 6 4 1
3 3 7 9 9 13 21 23 30 11 10 7 7 6 7 7 12 13 16 18 20 22 18 20 20 22 21 22 23 24 22 23 22 22 19 16 14 12 12 14 12 10 10 9 8 6 5 3 2
9 1 2 5 7 13 3 14 25 18 12 9 9 14 17 10 9 16 17 17 18 19 22 18 21 22 23 23 23 24 22 24 24 25 20 21 17 14 14 13 13 11 10 9 7 5 4 2 1
15 11 7 7 11 17 6 13 12 12 6 6 14 21 20 12 15 8 17 18 17 19 21 22 24 23 23 23 23 21 23 19 19 20 21 18 17 16 17 13 13 13 11 9 7 5 3 2 1
6 12 12 16 23 19 14 25 31 27 27 18 21 20 22 21 11 12 13 16 20 19 22 24 24 23 23 23 21 22 21 21 21 21 21 18 17 16 16 14 14 12 10 8 6 3 2 2 2
14 0 3 6 6 14 14 26 22 16 16 9 17 14 11 8 10 11 12 16 17 18 20 23 24 24 24 23 20 20 20 21 21 21 20 20 16 15 16 14 13 11 9 7 4 2 1 2 3
15 15 9 10 10 10 21 15 11 11 13 15 17 16 2 10 12 16 16 15 12 15 19 21 22 23 23 23 22 22 21 23 23 23 21 20 15 15 14 13 12 10 8 5 3 1 1 4 6
17 17 22 12 11 12 20 42 17 19 17 12 15 6 10 11 15 13 15 11 7 12 17 21 21 23 22 23 23 22 22 23 24 23 21 18 18 14 14 12 10 8 6 3 1 1 3 6 8
Wind_Direction
289 288 292 269 250 229 256 240 247 226 219 225 328 259 308 333 345 241 147 98 129 146 147 156 145 142 143 146 146 143 140 143 151 154 161 146 129 122 96 86 75 64 59 59 58 65 74 79 78
297 290 252 269 248 243 247 216 214 227 275 285 245 250 256 262 52 94 144 136 144 147 146 150 145 142 145 146 146 143 139 139 149 154 147 125 122 113 100 93 79 70 66 65 64 62 62 67 67
268 258 262 233 238 244 251 161 229 162 245 231 224 230 283 64 85 130 103 143 147 152 151 142 148 149 148 149 146 146 141 138 141 149 156 125 119 117 110 101 87 80 79 80 72 66 64 57 50
242 220 247 244 243 240 255 186 191 223 195 205 305 246 157 52 123 74 134 150 154 154 148 140 148 150 148 150 150 147 140 140 140 131 137 138 131 127 127 120 109 102 95 94 90 84 73 62 58
234 249 235 230 243 250 216 250 218 228 240 237 218 240 184 110 105 124 147 152 159 154 134 150 149 152 150 156 155 152 146 144 147 138 143 140 143 145 143 135 123 114 106 95 81 74 67 57 37
216 232 236 235 241 239 242 222 223 237 246 239 247 247 171 111 150 140 148 156 160 154 145 147 158 158 153 159 161 160 155 153 151 159 163 154 162 173 175 160 145 131 122 106 78 59 41 40 30
233 222 236 243 248 244 222 224 238 239 238 233 242 248 140 146 102 149 155 151 160 154 159 154 169 164 158 162 166 166 164 167 164 167 155 125 112 93 231 190 162 147 135 123 75 67 44 47 36
237 250 245 244 248 248 244 240 247 246 246 163 233 231 232 99 137 146 148 151 162 167 174 167 170 172 173 172 171 169 168 170 170 176 157 140 148 179 96 148 154 151 148 114 70 66 56 77 74
238 252 238 236 242 245 274 224 236 236 257 215 213 262 51 89 148 159 164 168 170 178 182 186 178 173 179 177 172 169 169 174 173 177 169 178 205 169 150 102 133 138 139 112 96 76 115 194 161
215 231 239 246 251 249 259 214 243 226 232 237 224 221 178 171 192 191 191 188 189 186 190 190 191 181 184 164 162 181 178 185 190 188 179 203 196 157 91 119 132 137 142 154 155 172 225 229 186
217 245 242 247 296 274 267 240 247 244 250 227 228 217 189 213 206 214 211 206 196 195 192 195 192 189 186 186 167 176 180 198 193 188 179 201 181 160 188 159 175 183 193 195 185 183 220 30 355
233 252 256 277 243 249 247 257 251 246 251 262 251 296 257 251 235 217 224 224 207 196 194 195 193 194 191 189 189 181 196 196 189 188 187 182 191 185 184 192 175 194 187 99 46 72 79 343 355
232 251 246 265 261 259 268 259 259 258 256 256 267 256 253 256 250 245 235 225 216 203 195 195 200 194 197 200 193 200 194 186 205 185 188 182 179 182 176 169 184 159 91 121 167 146 59 2 348
330 260 266 259 259 256 260 263 257 249 252 256 255 255 251 248 249 250 235 229 231 210 201 199 199 198 195 202 203 204 199 185 196 182 188 188 182 170 180 168 128 122 135 132 118 67 21 6 340
265 263 263 253 246 242 261 266 252 250 250 253 249 247 246 248 248 245 247 235 227 223 216 205 202 201 205 202 205 206 201 180 190 187 186 189 166 172 175 159 157 150 137 130 111 84 25 350 338
232 242 257 200 227 241 224 261 279 252 233 249 248 250 251 247 245 243 241 235 233 232 223 217 204 210 206 208 204 211 203 190 185 192 184 182 173 172 154 154 152 159 146 129 114 67 49 353 335
220 249 224 238 212 249 213 275 276 199 271 254 245 252 249 249 244 243 240 239 230 228 227 217 206 212 212 210 205 210 208 195 177 196 182 182 174 163 149 159 150 155 141 124 118 89 36 4 337
236 223 245 259 181 235 264 268 273 273 268 261 259 255 254 251 244 246 245 242 241 237 230 229 208 209 215 211 211 203 209 177 183 185 180 173 168 158 147 147 147 147 137 126 120 118 86 29 347
277 287 276 272 277 280 277 277 274 272 264 260 257 255 252 251 250 243 239 242 242 236 234 226 227 212 206 200 200 200 204 156 157 168 159 170 165 151 146 144 139 147 141 129 128 120 92 43 360
252 260 263 276 281 289 293 284 281 270 260 257 255 252 252 253 248 245 239 233 234 235 231 228 221 211 202 195 200 197 133 102 110 133 157 165 156 151 144 140 133 136 130 123 121 138 122 75 25
242 256 271 280 302 293 282 286 269 261 247 246 249 252 252 252 250 246 240 237 229 231 229 222 224 209 199 196 184 154 105 109 118 139 149 167 148 144 130 129 128 135 128 122 115 103 72 102 79
260 266 277 281 290 279 85 292 284 280 266 253 233 241 244 244 244 248 251 246 236 227 226 217 219 205 195 184 178 174 173 167 163 150 145 140 136 136 132 131 126 127 133 129 124 105 93 42 79
236 14 282 288 286 304 266 247 267 277 259 244 238 245 254 251 247 250 241 241 249 246 220 211 212 205 190 183 174 170 178 174 152 139 142 142 134 130 125 128 133 136 138 128 126 117 100 82 63
68 271 275 269 269 262 252 220 275 275 290 309 299 219 195 256 262 266 261 254 240 240 241 199 201 199 186 176 177 181 180 157 151 147 144 140 137 140 134 135 139 140 133 130 120 108 106 94 78
209 193 280 231 210 249 248 221 234 285 277 275 256 240 279 282 281 288 275 255 239 227 225 199 202 195 178 183 187 186 163 165 160 151 148 144 141 147 151 141 144 141 129 126 124 123 132 123 352
209 203 224 274 260 297 260 249 245 249 259 251 275 272 268 261 262 269 297 267 245 224 213 198 199 192 181 182 182 178 154 162 158 153 152 149 147 146 146 151 138 138 134 131 130 136 141 140 263
174 212 242 278 282 278 249 268 277 271 262 284 267 258 263 264 253 283 303 287 248 226 215 198 195 185 177 175 173 152 159 158 156 147 143 139 144 143 141 140 140 137 133 135 142 145 174 234 259
217 235 192 208 265 269 271 281 267 252 249 304 282 270 254 231 276 306 318 304 252 228 205 198 191 175 171 165 149 153 153 145 135 131 128 124 126 140 139 141 138 136 135 137 142 159 168 280 283
202 232 229 274 238 275 295 264 58 29 345 315 305 277 188 287 299 317 321 306 255 220 195 186 178 165 159 147 145 145 144 142 130 125 121 121 134 136 138 140 138 138 139 140 157 156 264 270 280
233 222 227 234 243 237 270 271 290 291 286 268 282 274 277 293 304 315 316 299 232 199 179 169 160 158 149 136 139 140 141 133 127 125 127 137 136 139 138 137 135 134 133 138 159 253 264 278 285